CW0315 Weather Reports


time (UTC)temp
C
wind
direction
speed
KPH
gust
KPH
rain 1hr
cm
rain 24hr
cm
rain mn
cm
humidity
%
barometer
mb
20260831002313 15 45 8.0 9.7 0.00 0.00 0.00 82 1015.7
20260831001311 15 45 6.4 11.3 0.00 0.00 0.00 81 1015.7
20260831000311 15 45 6.4 9.7 0.00 0.00 0.00 82 1015.8
20260830235311 15 45 8.0 9.7 0.00 0.00 0.00 82 1015.6
20260830234311 15 45 6.4 11.3 0.00 0.00 0.00 83 1015.7
20260830233310 15 45 6.4 9.7 0.00 0.00 0.00 83 1015.7
20260830231311 15 45 6.4 9.7 0.00 0.00 0.00 83 1015.5
20260830230310 15 45 6.4 8.0 0.00 0.00 0.00 83 1015.5
20260830225310 16 45 6.4 9.7 0.00 0.00 0.00 82 1015.7
20260830223310 16 45 6.4 8.0 0.00 0.00 0.00 82 1015.8
20260830222310 16 22 6.4 8.0 0.00 0.00 0.00 81 1015.8
20260830221309 16 45 4.8 11.3 0.00 0.00 0.00 80 1016.1
20260830220309 16 45 6.4 8.0 0.00 0.00 0.00 81 1016.0
20260830214309 15 45 6.4 8.0 0.00 0.00 0.00 82 1016.0
20260830213309 15 45 8.0 11.3 0.00 0.00 0.00 83 1015.8
20260830212314 15 45 6.4 9.7 0.00 0.00 0.00 82 1015.8
20260830211314 15 45 6.4 9.7 0.00 0.00 0.00 82 1015.8
20260830205313 16 22 6.4 9.7 0.00 0.00 0.00 81 1015.8
20260830204313 16 22 4.8 9.7 0.00 0.00 0.00 80 1015.8
20260830203313 16 45 4.8 11.3 0.00 0.00 0.00 80 1015.7
20260830202313 16 45 6.4 9.7 0.00 0.00 0.00 80 1015.7
20260830201313 16 22 6.4 12.9 0.00 0.00 0.00 80 1015.6
20260830200313 16 45 8.0 11.3 0.00 0.00 0.00 80 1015.6
20260830195313 16 22 8.0 9.7 0.00 0.00 0.00 80 1015.6
20260830194312 16 45 6.4 11.3 0.00 0.00 0.00 80 1015.8
20260830193312 16 45 8.0 11.3 0.00 0.00 0.00 80 1015.8
20260830192312 16 22 6.4 11.3 0.00 0.00 0.00 80 1015.8
20260830190312 16 22 6.4 9.7 0.00 0.00 0.00 79 1015.5
20260830184312 17 45 6.4 8.0 0.00 0.00 0.00 79 1015.2
20260830183312 17 45 6.4 12.9 0.00 0.00 0.00 78 1014.8
20260830182312 17 45 6.4 9.7 0.00 0.00 0.00 77 1014.8
20260830181311 17 45 6.4 9.7 0.00 0.00 0.00 76 1014.7
20260830180311 18 22 4.8 8.0 0.00 0.00 0.00 76 1014.7
20260830175311 18 22 4.8 8.0 0.00 0.00 0.00 75 1014.9
20260830174311 18 22 3.2 8.0 0.00 0.00 0.00 73 1014.9
20260830173311 19 45 4.8 6.4 0.00 0.00 0.00 72 1014.9
20260830171311 20 0 0.0 0.0 0.00 0.00 0.00 71 1015.1
20260830170311 21 0 0.0 0.0 0.00 0.00 0.00 69 1015.1
20260830164310 22 0 0.0 0.0 0.00 0.00 0.00 65 1015.5
20260830162310 22 0 0.0 0.0 0.00 0.00 0.00 59 1015.5
20260830160310 22 270 1.6 6.4 0.00 0.00 0.00 55 1015.5
20260830155310 22 180 0.0 6.4 0.00 0.00 0.00 56 1015.5
20260830154309 22 270 0.0 8.0 0.00 0.00 0.00 56 1015.5
20260830153309 23 180 4.8 11.3 0.00 0.00 0.00 55 1015.8
20260830152309 23 292 0.0 12.9 0.00 0.00 0.00 56 1015.8
20260830151309 23 180 1.6 11.3 0.00 0.00 0.00 55 1015.7
20260830150314 23 202 4.8 11.3 0.00 0.00 0.00 56 1015.9
20260830145314 23 315 0.0 12.9 0.00 0.00 0.00 55 1015.9
20260830143313 23 180 3.2 11.3 0.00 0.00 0.00 54 1016.0
20260830142313 23 202 11.3 17.7 0.00 0.00 0.00 56 1016.0
20260830140313 23 180 6.4 12.9 0.00 0.00 0.00 55 1016.1
20260830134313 22 202 3.2 9.7 0.00 0.00 0.00 61 1016.0
20260830131312 22 202 1.6 16.1 0.00 0.00 0.00 63 1016.1
20260830130312 22 180 1.6 14.5 0.00 0.00 0.00 62 1016.5
20260830124312 22 180 3.2 16.1 0.00 0.00 0.00 65 1016.5
20260830123312 22 202 17.7 24.1 0.00 0.00 0.00 65 1016.8
20260830122312 22 202 6.4 12.9 0.00 0.00 0.00 65 1016.8
20260830121312 22 0 0.0 16.1 0.00 0.00 0.00 65 1016.8
20260830115311 21 202 3.2 11.3 0.00 0.00 0.00 65 1016.6
20260830114311 21 202 11.3 19.3 0.00 0.00 0.00 66 1016.6
20260830113311 21 202 11.3 16.1 0.00 0.00 0.00 67 1016.7
20260830112311 20 180 1.6 11.3 0.00 0.00 0.00 67 1016.5
20260830111311 20 292 6.4 17.7 0.00 0.00 0.00 67 1016.6
20260830110311 20 180 6.4 25.7 0.00 0.00 0.00 67 1016.7
20260830105310 21 157 0.0 12.9 0.00 0.00 0.00 65 1016.9
20260830104310 20 315 6.4 14.5 0.00 0.00 0.00 63 1016.8
20260830103310 20 202 11.3 17.7 0.00 0.00 0.00 64 1016.9
20260830102310 21 202 9.7 14.5 0.00 0.00 0.00 65 1017.1
20260830101310 21 202 9.7 16.1 0.00 0.00 0.00 64 1017.0
20260830100310 20 202 0.0 17.7 0.00 0.00 0.00 64 1017.0
20260830095310 20 202 1.6 11.3 0.00 0.00 0.00 64 1017.0
20260830094310 20 202 4.8 14.5 0.00 0.00 0.00 65 1017.1
20260830092309 19 247 3.2 12.9 0.00 0.00 0.00 69 1016.9
20260830091313 19 270 4.8 14.5 0.00 0.00 0.00 68 1017.0
20260830090313 19 270 3.2 14.5 0.00 0.00 0.00 68 1017.0
20260830085313 18 180 1.6 12.9 0.00 0.00 0.00 71 1017.0
20260830084313 18 180 1.6 9.7 0.00 0.00 0.00 72 1017.0
20260830083313 17 202 0.0 8.0 0.00 0.00 0.00 72 1016.9
20260830082313 17 180 1.6 6.4 0.00 0.00 0.00 72 1016.9
20260830081313 17 0 0.0 0.0 0.00 0.00 0.00 72 1017.2
20260830080312 17 0 0.0 8.0 0.00 0.00 0.00 74 1017.1
20260830074312 17 0 0.0 9.7 0.00 0.00 0.00 69 1017.0
20260830073312 17 202 3.2 8.0 0.00 0.00 0.00 69 1017.0
20260830072312 17 292 4.8 14.5 0.00 0.00 0.00 68 1017.0
20260830071312 17 0 0.0 8.0 0.00 0.00 0.00 70 1016.8
20260830065311 16 0 0.0 0.0 0.00 0.00 0.00 75 1016.4
20260830064311 15 0 0.0 0.0 0.00 0.00 0.00 85 1016.3
20260830061311 13 22 3.2 4.8 0.00 0.00 0.00 86 1016.0
20260830060311 13 45 4.8 6.4 0.00 0.00 0.00 86 1016.1
20260830055311 13 67 6.4 8.0 0.00 0.00 0.00 87 1016.1
20260830054310 13 22 4.8 6.4 0.00 0.00 0.00 87 1016.2
20260830053310 13 45 4.8 6.4 0.00 0.00 0.00 86 1016.2
20260830052310 13 45 6.4 6.4 0.00 0.00 0.00 87 1016.4
20260830051310 12 45 4.8 6.4 0.00 0.00 0.00 86 1016.1
20260830050310 12 45 6.4 8.0 0.00 0.00 0.00 86 1015.9
20260830045310 13 45 3.2 6.4 0.00 0.00 0.00 86 1016.0
20260830044310 13 45 4.8 6.4 0.00 0.00 0.00 86 1016.0
20260830041309 13 45 3.2 6.4 0.00 0.00 0.00 86 1016.1
20260830040309 13 22 4.8 6.4 0.00 0.00 0.00 86 1016.0
20260830035309 13 0 0.0 6.4 0.00 0.00 0.00 86 1016.0
20260830034314 13 22 4.8 6.4 0.00 0.00 0.00 86 1016.1
20260830033314 13 45 4.8 6.4 0.00 0.00 0.00 86 1016.2
20260830032313 13 45 4.8 6.4 0.00 0.00 0.00 86 1016.2
20260830031313 13 360 4.8 8.0 0.00 0.00 0.00 87 1016.3
20260830030313 13 45 4.8 8.0 0.00 0.00 0.00 87 1016.4
20260830025313 13 45 4.8 8.0 0.00 0.00 0.00 87 1016.4
20260830023313 13 22 4.8 6.4 0.00 0.00 0.00 87 1016.4
20260830022313 13 22 4.8 6.4 0.00 0.00 0.00 87 1016.4
20260830021313 13 45 3.2 8.0 0.00 0.00 0.00 87 1016.7
20260830015312 12 45 6.4 8.0 0.00 0.00 0.00 86 1016.7
20260830014312 12 22 6.4 8.0 0.00 0.00 0.00 86 1016.6
20260830013313 12 45 6.4 9.7 0.00 0.00 0.00 86 1016.7
20260830012312 12 360 6.4 9.7 0.00 0.00 0.00 86 1016.5
20260830011312 12 22 8.0 9.7 0.00 0.00 0.00 86 1016.4
20260830010312 13 45 8.0 9.7 0.00 0.00 0.00 86 1016.4
20260830005311 13 22 8.0 11.3 0.00 0.00 0.00 86 1016.4
20260830004312 13 22 6.4 8.0 0.00 0.00 0.00 86 1016.3
20260830003311 13 45 6.4 9.7 0.00 0.00 0.00 85 1016.4